Time,TemperatureF,DewpointF,PressureIn,WindDirection,WindDirectionDegrees,WindSpeedMPH,WindSpeedGustMPH,Humidity,HourlyPrecipIn,Conditions,Clouds,dailyrainin,SoftwareType,DateUTC
2013-01-23 00:00:00,25.0,25.0,-100.00,North,-999,0.0,0.0,100,-99.99,,,0.00,,2013-01-23 08:00:00,
2013-01-23 00:12:00,25.0,25.0,-100.00,North,-999,0.0,0.0,100,-99.99,,,0.00,,2013-01-23 08:12:00,
2013-01-23 00:20:00,25.0,25.0,-100.00,North,-999,0.0,0.0,100,-99.99,,,0.00,,2013-01-23 08:20:00,
2013-01-23 00:30:00,25.0,25.0,-100.00,North,-999,0.0,0.0,100,-99.99,,,0.00,,2013-01-23 08:30:00,
2013-01-23 00:33:00,25.0,25.0,-100.00,North,-999,0.0,0.0,100,-99.99,,,-99.99,,2013-01-23 08:33:00,
2013-01-23 00:42:00,25.0,25.0,-100.00,North,-999,0.0,0.0,100,-99.99,,,0.00,,2013-01-23 08:42:00,
2013-01-23 00:50:00,25.0,25.0,-100.00,North,-999,0.0,0.0,100,-99.99,,,0.00,,2013-01-23 08:50:00,
2013-01-23 00:52:00,25.0,25.0,-100.00,North,-999,0.0,0.0,100,-99.99,,,0.00,,2013-01-23 08:52:00,
2013-01-23 01:00:00,25.0,25.0,-100.00,North,-999,0.0,0.0,100,-99.99,,,0.00,,2013-01-23 09:00:00,
2013-01-23 01:12:00,25.0,25.0,-100.00,North,-999,0.0,0.0,100,-99.99,,,0.00,,2013-01-23 09:12:00,
2013-01-23 01:20:00,25.0,25.0,-100.00,North,-999,0.0,0.0,100,-99.99,,,0.00,,2013-01-23 09:20:00,
2013-01-23 01:30:00,25.0,25.0,-100.00,North,-999,0.0,0.0,100,-99.99,,,0.00,,2013-01-23 09:30:00,
2013-01-23 01:43:00,25.0,25.0,-100.00,North,-999,0.0,0.0,100,-99.99,,,0.00,,2013-01-23 09:43:00,
2013-01-23 02:00:00,24.0,24.0,-100.00,North,-999,0.0,0.0,100,-99.99,,,0.00,,2013-01-23 10:00:00,
2013-01-23 02:12:00,25.0,25.0,-100.00,North,-999,0.0,0.0,100,-99.99,,,0.00,,2013-01-23 10:12:00,
2013-01-23 02:20:00,24.0,24.0,-100.00,North,-999,0.0,0.0,100,-99.99,,,0.00,,2013-01-23 10:20:00,
2013-01-23 02:30:00,24.0,24.0,-100.00,North,-999,0.0,0.0,100,-99.99,,,0.00,,2013-01-23 10:30:00,
2013-01-23 02:42:00,24.0,24.0,-100.00,North,-999,0.0,0.0,100,-99.99,,,0.00,,2013-01-23 10:42:00,
2013-01-23 02:50:00,25.0,25.0,-100.00,North,-999,0.0,0.0,100,-99.99,,,0.00,,2013-01-23 10:50:00,
2013-01-23 02:52:00,24.0,24.0,-100.00,North,-999,0.0,0.0,100,-99.99,,,0.00,,2013-01-23 10:52:00,
2013-01-23 03:00:00,25.0,25.0,-100.00,North,-999,0.0,0.0,100,-99.99,,,0.00,,2013-01-23 11:00:00,
2013-01-23 03:12:00,24.0,24.0,-100.00,North,-999,0.0,0.0,100,-99.99,,,0.00,,2013-01-23 11:12:00,
2013-01-23 03:20:00,25.0,25.0,-100.00,North,-999,0.0,0.0,100,-99.99,,,0.00,,2013-01-23 11:20:00,
2013-01-23 03:30:00,25.0,25.0,-100.00,North,-999,0.0,0.0,100,-99.99,,,0.00,,2013-01-23 11:30:00,
2013-01-23 03:43:00,25.0,25.0,-100.00,North,-999,0.0,0.0,100,-99.99,,,0.00,,2013-01-23 11:43:00,
2013-01-23 03:50:00,25.0,25.0,-100.00,North,-999,0.0,0.0,100,-99.99,,,-99.99,,2013-01-23 11:50:00,
2013-01-23 04:12:00,25.0,25.0,-100.00,North,-999,0.0,0.0,100,-99.99,,,0.00,,2013-01-23 12:12:00,
2013-01-23 04:20:00,25.0,25.0,-100.00,North,-999,0.0,0.0,100,-99.99,,,0.00,,2013-01-23 12:20:00,
2013-01-23 04:43:00,25.0,25.0,-100.00,North,-999,0.0,0.0,100,-99.99,,,-99.99,,2013-01-23 12:43:00,
2013-01-23 05:00:00,25.0,25.0,-100.00,North,-999,0.0,0.0,100,-99.99,,,0.00,,2013-01-23 13:00:00,
2013-01-23 05:12:00,25.0,25.0,-100.00,North,-999,0.0,0.0,100,-99.99,,,0.00,,2013-01-23 13:12:00,
2013-01-23 05:20:00,25.0,25.0,-100.00,North,-999,0.0,0.0,100,-99.99,,,-99.99,,2013-01-23 13:20:00,
2013-01-23 05:30:00,25.0,25.0,-100.00,North,-999,0.0,0.0,100,-99.99,,,0.00,,2013-01-23 13:30:00,
2013-01-23 05:42:00,25.0,25.0,-100.00,North,-999,0.0,0.0,100,-99.99,,,0.00,,2013-01-23 13:42:00,
2013-01-23 05:50:00,25.0,25.0,-100.00,North,-999,0.0,0.0,100,-99.99,,,0.00,,2013-01-23 13:50:00,
2013-01-23 05:52:00,25.0,25.0,-100.00,North,-999,0.0,0.0,100,-99.99,,,0.00,,2013-01-23 13:52:00,
2013-01-23 06:00:00,25.0,25.0,-100.00,North,-999,0.0,0.0,100,-99.99,,,0.00,,2013-01-23 14:00:00,
2013-01-23 06:12:00,25.0,25.0,-100.00,North,-999,0.0,0.0,100,-99.99,,,-99.99,,2013-01-23 14:12:00,
2013-01-23 06:20:00,25.0,25.0,-100.00,North,-999,0.0,0.0,100,-99.99,,,0.00,,2013-01-23 14:20:00,
2013-01-23 06:42:00,25.0,25.0,-100.00,North,-999,0.0,0.0,100,-99.99,,,0.00,,2013-01-23 14:42:00,
2013-01-23 06:50:00,25.0,25.0,-100.00,North,-999,0.0,0.0,100,-99.99,,,0.00,,2013-01-23 14:50:00,
2013-01-23 07:00:00,25.0,25.0,-100.00,North,-999,0.0,0.0,100,-99.99,,,0.00,,2013-01-23 15:00:00,
2013-01-23 07:12:00,25.0,25.0,-100.00,North,-999,0.0,0.0,100,-99.99,,,0.00,,2013-01-23 15:12:00,
2013-01-23 07:20:00,25.0,25.0,-100.00,North,-999,0.0,0.0,100,-99.99,,,0.00,,2013-01-23 15:20:00,
2013-01-23 07:43:00,25.0,25.0,-100.00,North,-999,0.0,0.0,100,-99.99,,,0.00,,2013-01-23 15:43:00,
2013-01-23 07:50:00,25.0,25.0,-100.00,North,-999,0.0,0.0,100,-99.99,,,0.00,,2013-01-23 15:50:00,
2013-01-23 08:00:00,25.0,25.0,-100.00,North,-999,0.0,0.0,100,-99.99,,,0.00,,2013-01-23 16:00:00,
2013-01-23 08:12:00,25.0,25.0,-100.00,North,-999,0.0,0.0,100,-99.99,,,0.00,,2013-01-23 16:12:00,
2013-01-23 08:20:00,25.0,25.0,-100.00,North,-999,0.0,0.0,100,-99.99,,,0.00,,2013-01-23 16:20:00,
2013-01-23 08:30:00,25.0,25.0,-100.00,North,-999,0.0,0.0,100,-99.99,,,-99.99,,2013-01-23 16:30:00,
2013-01-23 08:42:00,25.0,25.0,-100.00,North,-999,0.0,0.0,100,-99.99,,,0.00,,2013-01-23 16:42:00,
2013-01-23 08:50:00,26.0,26.0,-100.00,North,-999,0.0,0.0,100,-99.99,,,0.00,,2013-01-23 16:50:00,
2013-01-23 09:00:00,26.0,26.0,-100.00,North,-999,0.0,0.0,100,-99.99,,,0.00,,2013-01-23 17:00:00,
2013-01-23 09:12:00,25.0,25.0,-100.00,North,-999,0.0,0.0,100,-99.99,,,0.00,,2013-01-23 17:12:00,
2013-01-23 09:20:00,27.0,27.0,-100.00,North,-999,0.0,0.0,100,-99.99,,,0.00,,2013-01-23 17:20:00,
2013-01-23 09:30:00,26.0,26.0,-100.00,North,-999,0.0,0.0,100,-99.99,,,-99.99,,2013-01-23 17:30:00,
2013-01-23 09:42:00,26.0,26.0,-100.00,North,-999,0.0,0.0,100,-99.99,,,0.00,,2013-01-23 17:42:00,
2013-01-23 09:50:00,25.0,25.0,-100.00,North,-999,0.0,0.0,100,-99.99,,,0.00,,2013-01-23 17:50:00,
2013-01-23 10:12:00,27.0,27.0,-100.00,North,-999,0.0,0.0,100,-99.99,,,0.00,,2013-01-23 18:12:00,
2013-01-23 10:20:00,25.0,25.0,-100.00,North,-999,0.0,0.0,100,-99.99,,,0.00,,2013-01-23 18:20:00,
2013-01-23 10:30:00,25.0,25.0,-100.00,North,-999,0.0,0.0,100,-99.99,,,-99.99,,2013-01-23 18:30:00,
2013-01-23 10:43:00,25.0,25.0,-100.00,North,-999,0.0,0.0,100,-99.99,,,0.00,,2013-01-23 18:43:00,
2013-01-23 10:50:00,26.0,26.0,-100.00,North,-999,0.0,0.0,100,-99.99,,,0.00,,2013-01-23 18:50:00,
2013-01-23 11:00:00,26.0,26.0,-100.00,North,-999,0.0,0.0,100,-99.99,,,0.00,,2013-01-23 19:00:00,
2013-01-23 11:13:00,25.0,25.0,-100.00,North,-999,0.0,0.0,100,-99.99,,,0.00,,2013-01-23 19:13:00,
2013-01-23 11:20:00,26.0,26.0,-100.00,North,-999,0.0,0.0,100,-99.99,,,0.00,,2013-01-23 19:20:00,
2013-01-23 11:30:00,26.0,26.0,-100.00,North,-999,0.0,0.0,100,-99.99,,,0.00,,2013-01-23 19:30:00,
2013-01-23 11:43:00,26.0,26.0,-100.00,North,-999,0.0,0.0,100,-99.99,,,0.00,,2013-01-23 19:43:00,
2013-01-23 12:00:00,28.0,28.0,-100.00,North,-999,0.0,0.0,100,-99.99,,,0.00,,2013-01-23 20:00:00,
2013-01-23 12:12:00,26.0,26.0,-100.00,North,-999,0.0,0.0,100,-99.99,,,0.00,,2013-01-23 20:12:00,
2013-01-23 12:20:00,30.0,30.0,-100.00,North,-999,0.0,0.0,100,-99.99,,,0.00,,2013-01-23 20:20:00,
2013-01-23 12:30:00,31.0,31.0,-100.00,North,-999,0.0,0.0,100,-99.99,,,0.00,,2013-01-23 20:30:00,
2013-01-23 12:50:00,32.0,32.0,-100.00,North,-999,0.0,0.0,100,-99.99,,,0.00,,2013-01-23 20:50:00,
2013-01-23 13:00:00,33.0,33.0,-100.00,North,-999,0.0,0.0,100,-99.99,,,0.00,,2013-01-23 21:00:00,
2013-01-23 13:12:00,30.0,30.0,-100.00,North,-999,0.0,0.0,100,-99.99,,,0.00,,2013-01-23 21:12:00,
2013-01-23 13:20:00,32.0,32.0,-100.00,North,-999,0.0,0.0,100,-99.99,,,0.00,,2013-01-23 21:20:00,
2013-01-23 13:30:00,32.0,32.0,-100.00,North,-999,0.0,0.0,100,-99.99,,,-99.99,,2013-01-23 21:30:00,
2013-01-23 13:42:00,32.0,32.0,-100.00,North,-999,0.0,0.0,100,-99.99,,,0.00,,2013-01-23 21:42:00,
2013-01-23 13:50:00,32.0,32.0,-100.00,North,-999,0.0,0.0,100,-99.99,,,0.00,,2013-01-23 21:50:00,
2013-01-23 14:00:00,32.0,32.0,-100.00,North,-999,0.0,0.0,100,-99.99,,,0.00,,2013-01-23 22:00:00,
2013-01-23 14:12:00,32.0,32.0,-100.00,North,-999,0.0,0.0,100,-99.99,,,0.00,,2013-01-23 22:12:00,
2013-01-23 14:20:00,32.0,32.0,-100.00,North,-999,0.0,0.0,100,-99.99,,,0.00,,2013-01-23 22:20:00,
2013-01-23 14:30:00,31.0,31.0,-100.00,North,-999,0.0,0.0,100,-99.99,,,0.00,,2013-01-23 22:30:00,
2013-01-23 14:42:00,32.0,32.0,-100.00,North,-999,0.0,0.0,100,-99.99,,,0.00,,2013-01-23 22:42:00,
2013-01-23 14:50:00,29.0,29.0,-100.00,North,-999,0.0,0.0,100,-99.99,,,0.00,,2013-01-23 22:50:00,
2013-01-23 15:00:00,30.0,30.0,-100.00,North,-999,0.0,0.0,100,-99.99,,,0.00,,2013-01-23 23:00:00,
2013-01-23 15:12:00,32.0,32.0,-100.00,North,-999,0.0,0.0,100,-99.99,,,0.00,,2013-01-23 23:12:00,
2013-01-23 15:20:00,31.0,31.0,-100.00,North,-999,0.0,0.0,100,-99.99,,,0.00,,2013-01-23 23:20:00,
2013-01-23 15:30:00,31.0,31.0,-100.00,North,-999,0.0,0.0,100,-99.99,,,0.00,,2013-01-23 23:30:00,
2013-01-23 15:42:00,29.0,29.0,-100.00,North,-999,0.0,0.0,100,-99.99,,,0.00,,2013-01-23 23:42:00,
2013-01-23 15:50:00,31.0,31.0,-100.00,North,-999,0.0,0.0,100,-99.99,,,0.00,,2013-01-23 23:50:00,
2013-01-23 16:12:00,31.0,31.0,-100.00,North,-999,0.0,0.0,100,-99.99,,,0.00,,2013-01-24 00:12:00,
2013-01-23 16:20:00,29.0,29.0,-100.00,North,-999,0.0,0.0,100,-99.99,,,0.00,,2013-01-24 00:20:00,
2013-01-23 16:42:00,31.0,31.0,-100.00,North,-999,0.0,0.0,100,-99.99,,,0.00,,2013-01-24 00:42:00,
2013-01-23 16:50:00,31.0,31.0,-100.00,North,-999,0.0,0.0,100,-99.99,,,-99.99,,2013-01-24 00:50:00,
2013-01-23 17:00:00,31.0,31.0,-100.00,North,-999,0.0,0.0,100,-99.99,,,0.00,,2013-01-24 01:00:00,
2013-01-23 17:10:00,31.0,31.0,-100.00,North,-999,0.0,0.0,100,-99.99,,,-99.99,,2013-01-24 01:10:00,
2013-01-23 17:12:00,29.0,29.0,-100.00,North,-999,0.0,0.0,100,-99.99,,,0.00,,2013-01-24 01:12:00,
2013-01-23 17:42:00,31.0,31.0,-100.00,North,-999,0.0,0.0,100,-99.99,,,-99.99,,2013-01-24 01:42:00,
2013-01-23 18:00:00,30.0,30.0,-100.00,North,-999,0.0,0.0,100,-99.99,,,0.00,,2013-01-24 02:00:00,
2013-01-23 18:20:00,32.0,32.0,-100.00,North,-999,0.0,0.0,100,-99.99,,,0.00,,2013-01-24 02:20:00,
2013-01-23 18:30:00,32.0,32.0,-100.00,North,-999,0.0,0.0,100,-99.99,,,0.00,,2013-01-24 02:30:00,
2013-01-23 18:40:00,32.0,32.0,-100.00,North,-999,0.0,0.0,100,-99.99,,,0.00,,2013-01-24 02:40:00,
2013-01-23 19:00:00,33.0,33.0,-100.00,North,-999,0.0,0.0,100,-99.99,,,0.00,,2013-01-24 03:00:00,
2013-01-23 19:10:00,33.0,33.0,-100.00,North,-999,0.0,0.0,100,-99.99,,,0.00,,2013-01-24 03:10:00,
2013-01-23 19:12:00,32.0,32.0,-100.00,North,-999,0.0,0.0,100,-99.99,,,0.00,,2013-01-24 03:12:00,
2013-01-23 19:50:00,35.0,35.0,-100.00,North,-999,0.0,0.0,100,-99.99,,,0.00,,2013-01-24 03:50:00,
2013-01-23 20:30:00,36.0,36.0,-100.00,North,-999,0.0,0.0,100,-99.99,,,0.00,,2013-01-24 04:30:00,
2013-01-23 20:40:00,36.0,36.0,-100.00,North,-999,0.0,0.0,100,-99.99,,,-99.99,,2013-01-24 04:40:00,
2013-01-23 20:42:00,35.0,35.0,-100.00,North,-999,0.0,0.0,100,-99.99,,,0.00,,2013-01-24 04:42:00,
2013-01-23 21:00:00,36.0,36.0,-100.00,North,-999,0.0,0.0,100,-99.99,,,0.00,,2013-01-24 05:00:00,
2013-01-23 21:20:00,36.0,36.0,-100.00,North,-999,0.0,0.0,100,-99.99,,,0.00,,2013-01-24 05:20:00,
2013-01-23 21:30:00,36.0,36.0,-100.00,North,-999,0.0,0.0,100,-99.99,,,-99.99,,2013-01-24 05:30:00,
2013-01-23 21:50:00,35.0,35.0,-100.00,North,-999,0.0,0.0,100,-99.99,,,0.00,,2013-01-24 05:50:00,
2013-01-23 22:00:00,36.0,36.0,-100.00,North,-999,0.0,0.0,100,-99.99,,,0.00,,2013-01-24 06:00:00,
2013-01-23 22:12:00,36.0,36.0,-100.00,North,-999,0.0,0.0,100,-99.99,,,0.00,,2013-01-24 06:12:00,
2013-01-23 22:20:00,38.0,38.0,-100.00,North,-999,0.0,0.0,100,-99.99,,,0.00,,2013-01-24 06:20:00,
2013-01-23 22:30:00,38.0,38.0,-100.00,North,-999,0.0,0.0,100,-99.99,,,0.00,,2013-01-24 06:30:00,
2013-01-23 22:42:00,35.0,35.0,-100.00,North,-999,0.0,0.0,100,-99.99,,,0.00,,2013-01-24 06:42:00,
2013-01-23 22:50:00,38.0,38.0,-100.00,North,-999,0.0,0.0,100,-99.99,,,0.00,,2013-01-24 06:50:00,
2013-01-23 23:00:00,38.0,38.0,-100.00,North,-999,0.0,0.0,100,-99.99,,,0.00,,2013-01-24 07:00:00,
2013-01-23 23:12:00,38.0,38.0,-100.00,North,-999,0.0,0.0,100,-99.99,,,0.00,,2013-01-24 07:12:00,
2013-01-23 23:20:00,38.0,38.0,-100.00,North,-999,0.0,0.0,100,-99.99,,,0.00,,2013-01-24 07:20:00,
2013-01-23 23:30:00,39.0,39.0,-100.00,North,-999,0.0,0.0,100,-99.99,,,-99.99,,2013-01-24 07:30:00,
2013-01-23 23:42:00,38.0,38.0,-100.00,North,-999,0.0,0.0,100,-99.99,,,0.00,,2013-01-24 07:42:00,